This is the latest recevied weather packets stored in our database for station/object N4PWG. If no packets are shown the sender has not sent any weather packets the latest 10 day(s).
| Time | Temp. | Humidity | Pressure | Rain* | Wind** | Luminosity | Snow |
|---|---|---|---|---|---|---|---|
| 1778018705 | 17.22° C | 99% | 1024.3 hPa | 0 mm | - | 19 W/m² | - |
| 1778018403 | 17.22° C | 99% | 1024.4 hPa | 0 mm | - | 18 W/m² | - |
| 1778018101 | 17.22° C | 99% | 1024.1 hPa | 0 mm | - | 13 W/m² | - |
| 1778017798 | 17.22° C | 99% | 1024.3 hPa | 1.78 mm | - | 12 W/m² | - |
| 1778017496 | 17.22° C | 99% | 1024.4 hPa | 1.78 mm | - | 14 W/m² | - |
| 1778017193 | 17.22° C | 99% | 1024.4 hPa | 0 mm | - | 15 W/m² | - |
| 1778016891 | 17.22° C | 99% | 1024.4 hPa | 0 mm | - | 13 W/m² | - |
| 1778016587 | 17.22° C | 99% | 1024.4 hPa | 0 mm | - | 13 W/m² | - |
| 1778016283 | 17.22° C | 99% | 1024.5 hPa | 0 mm | - | 16 W/m² | - |
| 1778015979 | 17.22° C | 99% | 1024.4 hPa | 3.05 mm | - | 16 W/m² | - |
| 1778015678 | 17.22° C | 99% | 1024.3 hPa | 4.32 mm | - | 21 W/m² | - |
| 1778015374 | 17.22° C | 99% | 1024.6 hPa | 3.05 mm | - | 31 W/m² | - |
| 1778015071 | 17.22° C | 99% | 1024.4 hPa | 3.56 mm | - | 28 W/m² | - |
| 1778014767 | 17.22° C | 99% | 1024.5 hPa | 3.05 mm | - | 29 W/m² | - |
| 1778014466 | 17.22° C | 99% | 1024.5 hPa | 1.27 mm | - | 30 W/m² | - |
| 1778014162 | 17.22° C | 99% | 1024.6 hPa | 1.78 mm | - | 32 W/m² | - |
| 1778013860 | 17.22° C | 99% | 1024.4 hPa | 3.05 mm | - | 32 W/m² | - |
| 1778013558 | 17.22° C | 99% | 1024.5 hPa | 1.78 mm | - | 29 W/m² | - |
| 1778013253 | 17.22° C | 99% | 1024.5 hPa | 1.78 mm | - | 29 W/m² | - |
| 1778012950 | 17.22° C | 99% | 1024.5 hPa | 0 mm | - | 29 W/m² | - |
| 1778012424 | 17.22° C | 99% | 1024.6 hPa | 3.05 mm | - | 26 W/m² | - |
| 1778012122 | 17.22° C | 99% | 1024.6 hPa | 3.05 mm | - | 26 W/m² | - |
| 1778011819 | 17.22° C | 99% | 1024.7 hPa | 1.78 mm | - | 23 W/m² | - |
| 1778011517 | 17.78° C | 99% | 1024.6 hPa | 1.78 mm | - | 23 W/m² | - |
| 1778011214 | 17.78° C | 99% | 1024.8 hPa | 0 mm | - | 26 W/m² | - |
* Rain latest hour (hover to see other rain measurements)
** Current wind speed in m/s (hover to see current wind gust speed)